This demonstration page uses our WeatherBlox Daily Observations layout. Learn more.

Left ArrowRight Arrow

38.20091, -84.87328

Hourly Observations for October 15, 2020

Temp ( °F °C ) Dew Point ( °F °C ) Humidity (%) Winds ( mph kmh ) Pressure ( in mb ) Visibility ( mi km ) Precip ( " mm )
12:53 am 00:53 Clear 65 18.3 50 10 59 59 S 12 19 29.81 1010 10 16 0.00 0.00
1:53 am 01:53 Clear 67 19.4 53 11.7 61 61 SSW 13 20 29.80 1009 10 16 0.00 0.00
2:53 am 02:53 Clear 65 18.3 54 12.2 68 68 SW 8 13 29.83 1010 10 16 0.00 0.00
3:53 am 03:53 Clear 64 17.8 55 12.8 73 73 SSW 10 17 29.83 1010 10 16 0.00 0.00
4:53 am 04:53 Clear 63 17.2 55 12.8 76 76 SW 9 15 29.84 1011 10 16 0.00 0.00
5:53 am 05:53 Clear 63 17.2 55 12.8 76 76 SSW 10 17 29.85 1011 10 16 0.00 0.00
6:53 am 06:53 Clear 62 16.7 55 12.8 78 78 SW 10 17 29.87 1012 10 16 0.00 0.00
7:53 am 07:53 Sunny 61 16.1 55 12.8 81 81 SW 9 15 29.88 1012 10 16 0.00 0.00
8:53 am 08:53 Sunny 63 17.2 56 13.3 78 78 SW 12 19 29.89 1012 10 16 0.00 0.00
9:53 am 09:53 Mostly Sunny 66 18.9 56 13.3 70 70 SW 12 19 29.91 1013 10 16 0.00 0.00
10:53 am 10:53 Sunny 69 20.6 53 11.7 57 57 W 10 17 29.91 1013 10 16 0.00 0.00
11:53 am 11:53 Cloudy 68 20 50 10 53 53 WNW 10 17 29.94 1014 10 16 0.00 0.00
12:53 pm 12:53 Cloudy 67 19.4 46 7.8 47 47 NNW 10 17 29.96 1014 10 16 0.00 0.00
1:53 pm 13:53 Cloudy 65 18.3 47 8.3 52 52 NW 9 15 29.95 1014 10 16 0.00 0.00
2:53 pm 14:53 Cloudy 64 17.8 46 7.8 52 52 NW 5 7 29.97 1015 10 16 0.00 0.00
3:53 pm 15:53 Cloudy 61 16.1 45 7.2 56 56 WNW 10 17 29.98 1015 10 16 0.00 0.00
4:53 pm 16:53 Cloudy with Light Rain 56 13.3 48 8.9 75 75 NW 6 9 30.02 1017 9 14 0.00 0.00
5:53 pm 17:53 Cloudy with Light Rain 54 12.2 50 10 87 87 NW 5 7 30.03 1017 10 16 0.01 0.25
6:53 pm 18:53 Cloudy 53 11.7 50 10 89 89 NW 3 6 30.04 1017 10 16 0.00 0.00
7:53 pm 19:53 Cloudy with Light Rain 53 11.7 50 10 89 89 WNW 5 7 30.06 1018 10 16 0.01 0.25
8:53 pm 20:53 Cloudy 53 11.7 49 9.4 86 86 Calm 30.08 1019 10 16 0.00 0.00
9:53 pm 21:53 Cloudy 53 11.7 49 9.4 86 86 WNW 5 7 30.09 1019 10 16 0.00 0.00
10:49 pm 22:49 Cloudy 54 12 48 9 82 82 NW 7 11 30.13 1020 10 16 0.00 0.00
10:53 pm 22:53 Cloudy 52 11.1 49 9.4 89 89 NW 10 17 30.12 1020 10 16 0.00 0.00
11:01 pm 23:01 Cloudy 52 11.1 45 7.2 77 77 NW 9 15 30.15 1021 10 16 0.00 0.00
11:10 pm 23:10 Cloudy 52 11.1 43 6.1 72 72 NNW 10 17 30.15 1021 10 16 0.00 0.00
11:53 pm 23:53 Cloudy 50 10 44 6.7 80 80 Calm 30.14 1021 10 16 0.00 0.00

Powered by Vaisala Xweather